Time,TemperatureF,DewpointF,PressureIn,WindDirection,WindDirectionDegrees,WindSpeedMPH,WindSpeedGustMPH,Humidity,HourlyPrecipIn,Conditions,Clouds,dailyrainin,SoftwareType,DateUTC
2013-07-22 00:01:00,73.6,71.8,29.91,North,0,0.0,0.0,94,0.00,,,0.00,WUHU216HW,2013-07-22 04:01:00,
2013-07-22 00:02:00,73.6,71.8,29.91,North,0,0.0,0.0,94,0.00,,,0.00,WUHU216HW,2013-07-22 04:02:00,
2013-07-22 00:07:00,73.6,71.8,29.90,North,0,0.0,0.0,94,0.00,,,0.00,WUHU216HW,2013-07-22 04:07:00,
2013-07-22 00:12:00,73.4,71.7,29.90,North,0,0.0,0.0,94,0.00,,,0.00,WUHU216HW,2013-07-22 04:12:00,
2013-07-22 00:17:00,73.4,71.7,29.90,North,0,0.0,0.0,94,0.00,,,0.00,WUHU216HW,2013-07-22 04:17:00,
2013-07-22 00:22:00,73.4,71.7,29.90,North,0,0.0,0.0,94,0.00,,,0.00,WUHU216HW,2013-07-22 04:22:00,
2013-07-22 00:27:00,73.4,71.7,29.90,North,0,0.0,0.0,94,0.00,,,0.00,WUHU216HW,2013-07-22 04:27:00,
2013-07-22 00:32:00,73.3,71.1,29.89,North,0,0.0,0.0,93,0.00,,,0.00,WUHU216HW,2013-07-22 04:32:00,
2013-07-22 00:37:00,73.3,71.1,29.89,North,0,0.0,0.0,93,0.00,,,0.00,WUHU216HW,2013-07-22 04:37:00,
2013-07-22 00:42:00,73.3,71.5,29.89,North,0,0.0,0.0,94,0.00,,,0.00,WUHU216HW,2013-07-22 04:42:00,
2013-07-22 00:47:00,73.1,71.3,29.89,North,0,0.0,0.0,94,0.00,,,0.00,WUHU216HW,2013-07-22 04:47:00,
2013-07-22 00:52:00,73.1,71.3,29.88,North,0,0.0,0.0,94,0.00,,,0.00,WUHU216HW,2013-07-22 04:52:00,
2013-07-22 00:58:00,73.1,71.3,29.88,North,0,0.0,0.0,94,0.00,,,0.00,WUHU216HW,2013-07-22 04:58:00,
2013-07-22 01:03:00,73.1,71.3,29.87,North,0,0.0,0.0,94,0.00,,,0.00,WUHU216HW,2013-07-22 05:03:00,
2013-07-22 01:08:00,73.1,71.3,29.87,North,0,0.0,0.0,94,0.00,,,0.00,WUHU216HW,2013-07-22 05:08:00,
2013-07-22 01:13:00,73.1,71.3,29.87,North,0,0.0,0.0,94,0.00,,,0.00,WUHU216HW,2013-07-22 05:13:00,
2013-07-22 01:18:00,73.1,71.3,29.87,North,0,0.0,0.0,94,0.00,,,0.00,WUHU216HW,2013-07-22 05:18:00,
2013-07-22 01:23:00,73.1,71.3,29.86,North,0,0.0,0.0,94,0.00,,,0.00,WUHU216HW,2013-07-22 05:23:00,
2013-07-22 01:28:00,72.9,71.1,29.86,North,0,0.0,0.0,94,0.00,,,0.00,WUHU216HW,2013-07-22 05:28:00,
2013-07-22 01:33:00,72.9,71.1,29.86,North,0,0.0,0.0,94,0.00,,,0.00,WUHU216HW,2013-07-22 05:33:00,
2013-07-22 01:39:00,72.9,71.1,29.86,North,0,0.0,0.0,94,0.00,,,0.00,WUHU216HW,2013-07-22 05:39:00,
2013-07-22 01:44:00,72.9,71.1,29.85,North,0,0.0,0.0,94,0.00,,,0.00,WUHU216HW,2013-07-22 05:44:00,
2013-07-22 01:49:00,72.9,71.1,29.85,North,0,0.0,0.0,94,0.00,,,0.00,WUHU216HW,2013-07-22 05:49:00,
2013-07-22 01:54:00,72.7,70.9,29.85,North,0,0.0,0.0,94,0.00,,,0.00,WUHU216HW,2013-07-22 05:54:00,
2013-07-22 01:59:00,72.9,71.1,29.85,North,0,0.0,0.0,94,0.00,,,0.00,WUHU216HW,2013-07-22 05:59:00,
2013-07-22 02:04:00,72.9,71.1,29.85,North,0,0.0,0.0,94,0.00,,,0.00,WUHU216HW,2013-07-22 06:04:00,
2013-07-22 02:09:00,72.9,71.1,29.85,North,0,0.0,0.0,94,0.00,,,0.00,WUHU216HW,2013-07-22 06:09:00,
2013-07-22 02:14:00,72.7,70.9,29.84,North,0,0.0,0.0,94,0.00,,,0.00,WUHU216HW,2013-07-22 06:14:00,
2013-07-22 02:19:00,72.7,70.9,29.84,North,0,0.0,0.0,94,0.00,,,0.00,WUHU216HW,2013-07-22 06:19:00,
2013-07-22 02:24:00,72.7,70.9,29.84,North,0,0.0,0.0,94,0.00,,,0.00,WUHU216HW,2013-07-22 06:24:00,
2013-07-22 02:29:00,72.7,70.9,29.84,North,0,0.0,0.0,94,0.00,,,0.00,WUHU216HW,2013-07-22 06:29:00,
2013-07-22 02:34:00,72.7,70.9,29.84,North,0,0.0,0.0,94,0.00,,,0.00,WUHU216HW,2013-07-22 06:34:00,
2013-07-22 02:39:00,72.7,70.9,29.84,North,0,0.0,0.0,94,0.00,,,0.00,WUHU216HW,2013-07-22 06:39:00,
2013-07-22 02:44:00,72.7,70.9,29.83,North,0,0.0,0.0,94,0.00,,,0.00,WUHU216HW,2013-07-22 06:44:00,
2013-07-22 02:49:00,72.7,70.9,29.83,North,0,0.0,0.0,94,0.00,,,0.00,WUHU216HW,2013-07-22 06:49:00,
2013-07-22 02:54:00,72.7,70.9,29.83,North,0,0.0,0.0,94,0.00,,,0.00,WUHU216HW,2013-07-22 06:54:00,
2013-07-22 02:59:00,72.7,70.9,29.83,North,0,0.0,0.0,94,0.00,,,0.00,WUHU216HW,2013-07-22 06:59:00,
2013-07-22 03:04:00,72.5,70.8,29.82,North,0,0.0,0.0,94,0.00,,,0.00,WUHU216HW,2013-07-22 07:04:00,
2013-07-22 03:09:00,72.5,70.8,29.82,North,0,0.0,0.0,94,0.00,,,0.00,WUHU216HW,2013-07-22 07:09:00,
2013-07-22 03:14:00,72.5,70.8,29.82,North,0,0.0,0.0,94,0.00,,,0.00,WUHU216HW,2013-07-22 07:14:00,
2013-07-22 03:19:00,72.5,70.8,29.82,North,0,0.0,0.0,94,0.00,,,0.00,WUHU216HW,2013-07-22 07:19:00,
2013-07-22 03:24:00,72.4,70.6,29.82,North,0,0.0,0.0,94,0.00,,,0.00,WUHU216HW,2013-07-22 07:24:00,
2013-07-22 03:30:00,72.4,70.6,29.82,North,0,0.0,0.0,94,0.00,,,0.00,WUHU216HW,2013-07-22 07:30:00,
2013-07-22 03:35:00,72.4,70.6,29.82,North,0,0.0,0.0,94,0.00,,,0.00,WUHU216HW,2013-07-22 07:35:00,
2013-07-22 03:40:00,72.2,70.4,29.82,North,0,0.0,0.0,94,0.00,,,0.00,WUHU216HW,2013-07-22 07:40:00,
2013-07-22 03:45:00,72.2,70.4,29.82,North,0,0.0,0.0,94,0.00,,,0.00,WUHU216HW,2013-07-22 07:45:00,
2013-07-22 03:50:00,72.2,70.4,29.82,North,0,0.0,0.0,94,0.00,,,0.00,WUHU216HW,2013-07-22 07:50:00,
2013-07-22 03:55:00,72.2,70.4,29.82,North,0,0.0,0.0,94,0.00,,,0.00,WUHU216HW,2013-07-22 07:55:00,
2013-07-22 04:00:00,72.2,70.4,29.82,North,0,0.0,0.0,94,0.00,,,0.00,WUHU216HW,2013-07-22 08:00:00,
2013-07-22 04:05:00,72.2,70.4,29.82,North,0,0.0,0.0,94,0.00,,,0.00,WUHU216HW,2013-07-22 08:05:00,
2013-07-22 04:10:00,72.0,70.2,29.82,North,0,0.0,0.0,94,0.00,,,0.00,WUHU216HW,2013-07-22 08:10:00,
2013-07-22 04:15:00,72.2,70.4,29.82,North,0,0.0,0.0,94,0.00,,,0.00,WUHU216HW,2013-07-22 08:15:00,
2013-07-22 04:20:00,72.0,70.2,29.82,North,0,0.0,0.0,94,0.00,,,0.00,WUHU216HW,2013-07-22 08:20:00,
2013-07-22 04:25:00,72.0,70.2,29.82,North,0,0.0,0.0,94,0.00,,,0.00,WUHU216HW,2013-07-22 08:25:00,
2013-07-22 04:30:00,72.0,70.2,29.83,North,0,0.0,0.0,94,0.00,,,0.00,WUHU216HW,2013-07-22 08:30:00,
2013-07-22 04:35:00,72.0,70.2,29.83,North,0,0.0,0.0,94,0.00,,,0.00,WUHU216HW,2013-07-22 08:35:00,
2013-07-22 04:41:00,72.0,70.2,29.83,North,0,0.0,0.0,94,0.00,,,0.00,WUHU216HW,2013-07-22 08:41:00,
2013-07-22 04:46:00,72.0,70.2,29.82,North,0,0.0,0.0,94,0.00,,,0.00,WUHU216HW,2013-07-22 08:46:00,
2013-07-22 04:51:00,71.8,70.0,29.82,North,0,0.0,0.0,94,0.00,,,0.00,WUHU216HW,2013-07-22 08:51:00,
2013-07-22 04:56:00,72.0,70.2,29.82,North,0,0.0,0.0,94,0.00,,,0.00,WUHU216HW,2013-07-22 08:56:00,
2013-07-22 05:01:00,71.8,70.0,29.82,North,0,0.0,0.0,94,0.00,,,0.00,WUHU216HW,2013-07-22 09:01:00,
2013-07-22 05:06:00,71.6,69.9,29.82,North,0,0.0,0.0,94,0.00,,,0.00,WUHU216HW,2013-07-22 09:06:00,
2013-07-22 05:11:00,71.6,69.9,29.82,North,0,0.0,0.0,94,0.00,,,0.00,WUHU216HW,2013-07-22 09:11:00,
2013-07-22 05:16:00,71.6,69.9,29.83,North,0,0.0,0.0,94,0.00,,,0.00,WUHU216HW,2013-07-22 09:16:00,
2013-07-22 05:21:00,71.6,69.9,29.83,North,0,0.0,0.0,94,0.00,,,0.00,WUHU216HW,2013-07-22 09:21:00,
2013-07-22 05:27:00,71.6,69.9,29.83,North,0,0.0,0.0,94,0.00,,,0.00,WUHU216HW,2013-07-22 09:27:00,
2013-07-22 05:32:00,71.5,69.7,29.83,North,0,0.0,0.0,94,0.00,,,0.00,WUHU216HW,2013-07-22 09:32:00,
2013-07-22 05:37:00,71.5,69.7,29.83,North,0,0.0,0.0,94,0.00,,,0.00,WUHU216HW,2013-07-22 09:37:00,
2013-07-22 05:42:00,71.5,69.7,29.83,North,0,0.0,0.0,94,0.00,,,0.00,WUHU216HW,2013-07-22 09:42:00,
2013-07-22 05:47:00,71.5,69.7,29.84,North,0,0.0,0.0,94,0.00,,,0.00,WUHU216HW,2013-07-22 09:47:00,
2013-07-22 05:52:00,71.5,69.7,29.84,North,0,0.0,0.0,94,0.00,,,0.00,WUHU216HW,2013-07-22 09:52:00,
2013-07-22 05:57:00,71.5,69.7,29.84,North,0,0.0,0.0,94,0.00,,,0.00,WUHU216HW,2013-07-22 09:57:00,
2013-07-22 06:02:00,71.5,69.7,29.84,North,0,0.0,0.0,94,0.00,,,0.00,WUHU216HW,2013-07-22 10:02:00,
2013-07-22 06:07:00,71.5,69.7,29.85,North,0,0.0,0.0,94,0.00,,,0.00,WUHU216HW,2013-07-22 10:07:00,
2013-07-22 06:12:00,71.6,69.9,29.85,North,0,0.0,0.0,94,0.00,,,0.00,WUHU216HW,2013-07-22 10:12:00,
2013-07-22 06:18:00,71.6,69.9,29.85,North,0,0.0,0.0,94,0.00,,,0.00,WUHU216HW,2013-07-22 10:18:00,
2013-07-22 06:23:00,71.6,69.9,29.85,North,0,0.0,0.0,94,0.00,,,0.00,WUHU216HW,2013-07-22 10:23:00,
2013-07-22 06:28:00,71.6,69.9,29.85,North,0,0.0,0.0,94,0.00,,,0.00,WUHU216HW,2013-07-22 10:28:00,
2013-07-22 06:33:00,71.6,69.9,29.85,North,0,0.0,0.0,94,0.00,,,0.00,WUHU216HW,2013-07-22 10:33:00,
2013-07-22 06:38:00,71.6,69.9,29.85,North,0,0.0,0.0,94,0.00,,,0.00,WUHU216HW,2013-07-22 10:38:00,
2013-07-22 06:43:00,71.8,70.0,29.85,North,0,0.0,0.0,94,0.00,,,0.00,WUHU216HW,2013-07-22 10:43:00,
2013-07-22 06:48:00,71.8,70.0,29.85,North,0,0.0,0.0,94,0.00,,,0.00,WUHU216HW,2013-07-22 10:48:00,
2013-07-22 06:53:00,71.8,70.0,29.85,North,0,0.0,0.0,94,0.00,,,0.00,WUHU216HW,2013-07-22 10:53:00,
2013-07-22 06:58:00,71.8,70.0,29.85,North,0,0.0,0.0,94,0.00,,,0.00,WUHU216HW,2013-07-22 10:58:00,
2013-07-22 07:04:00,71.8,70.0,29.85,North,0,0.0,0.0,94,0.00,,,0.00,WUHU216HW,2013-07-22 11:04:00,
2013-07-22 07:09:00,72.0,70.2,29.86,North,0,0.0,0.0,94,0.00,,,0.00,WUHU216HW,2013-07-22 11:09:00,
2013-07-22 07:14:00,72.0,70.2,29.86,North,0,0.0,0.0,94,0.00,,,0.00,WUHU216HW,2013-07-22 11:14:00,
2013-07-22 07:19:00,72.0,70.2,29.86,North,0,0.0,0.0,94,0.00,,,0.00,WUHU216HW,2013-07-22 11:19:00,
2013-07-22 07:24:00,71.8,70.0,29.86,North,0,0.0,0.0,94,0.00,,,0.00,WUHU216HW,2013-07-22 11:24:00,
2013-07-22 07:29:00,72.0,70.2,29.86,North,0,0.0,0.0,94,0.00,,,0.00,WUHU216HW,2013-07-22 11:29:00,
2013-07-22 07:34:00,72.0,70.2,29.86,North,0,0.0,0.0,94,0.00,,,0.00,WUHU216HW,2013-07-22 11:34:00,
2013-07-22 07:39:00,72.2,70.4,29.86,North,0,0.0,0.0,94,0.00,,,0.00,WUHU216HW,2013-07-22 11:39:00,
2013-07-22 07:40:00,72.0,70.2,29.86,North,0,0.0,0.0,94,0.00,,,0.00,WUHU216HW,2013-07-22 11:40:00,
2013-07-22 07:45:00,72.2,70.7,29.86,North,0,0.0,0.0,95,0.00,,,0.00,WUHU216HW,2013-07-22 11:45:00,
2013-07-22 07:50:00,72.4,70.6,29.87,North,0,0.0,0.0,94,0.00,,,0.00,WUHU216HW,2013-07-22 11:50:00,
2013-07-22 07:55:00,72.4,70.6,29.87,North,0,0.0,0.0,94,0.00,,,0.00,WUHU216HW,2013-07-22 11:55:00,
2013-07-22 08:00:00,72.5,70.8,29.87,North,0,0.0,0.0,94,0.00,,,0.00,WUHU216HW,2013-07-22 12:00:00,
2013-07-22 08:05:00,72.7,70.9,29.87,North,0,0.0,0.0,94,0.00,,,0.00,WUHU216HW,2013-07-22 12:05:00,
2013-07-22 08:10:00,73.1,71.3,29.87,North,0,0.0,0.0,94,0.00,,,0.00,WUHU216HW,2013-07-22 12:10:00,
2013-07-22 08:15:00,73.3,71.5,29.87,North,0,0.0,0.0,94,0.00,,,0.00,WUHU216HW,2013-07-22 12:15:00,
2013-07-22 08:21:00,73.3,71.5,29.87,North,0,0.0,0.0,94,0.00,,,0.00,WUHU216HW,2013-07-22 12:21:00,
2013-07-22 08:26:00,73.4,71.9,29.87,North,0,0.0,0.0,95,0.00,,,0.00,WUHU216HW,2013-07-22 12:26:00,
2013-07-22 08:31:00,73.6,72.1,29.87,North,0,0.0,0.0,95,0.00,,,0.00,WUHU216HW,2013-07-22 12:31:00,
2013-07-22 08:36:00,73.8,72.3,29.87,North,0,0.0,0.0,95,0.00,,,0.00,WUHU216HW,2013-07-22 12:36:00,
2013-07-22 08:41:00,74.0,72.5,29.88,North,0,0.0,0.0,95,0.00,,,0.00,WUHU216HW,2013-07-22 12:41:00,
2013-07-22 08:46:00,73.8,72.3,29.88,North,0,0.0,0.0,95,0.00,,,0.00,WUHU216HW,2013-07-22 12:46:00,
2013-07-22 08:51:00,73.8,72.3,29.88,North,0,0.0,0.0,95,0.00,,,0.00,WUHU216HW,2013-07-22 12:51:00,
2013-07-22 08:56:00,73.8,72.3,29.88,North,0,0.0,0.0,95,0.00,,,0.00,WUHU216HW,2013-07-22 12:56:00,
2013-07-22 09:01:00,73.4,71.9,29.88,North,0,0.0,0.0,95,0.00,,,0.00,WUHU216HW,2013-07-22 13:01:00,
2013-07-22 09:06:00,73.6,72.1,29.88,North,0,0.0,0.0,95,0.00,,,0.00,WUHU216HW,2013-07-22 13:06:00,
2013-07-22 09:11:00,73.8,72.3,29.88,North,0,0.0,0.0,95,0.00,,,0.00,WUHU216HW,2013-07-22 13:11:00,
2013-07-22 09:17:00,73.8,72.3,29.88,North,0,0.0,0.0,95,0.00,,,0.00,WUHU216HW,2013-07-22 13:17:00,
2013-07-22 09:22:00,73.8,72.3,29.88,North,0,0.0,0.0,95,0.00,,,0.00,WUHU216HW,2013-07-22 13:22:00,
2013-07-22 09:27:00,74.0,72.5,29.88,North,0,0.0,0.0,95,0.00,,,0.00,WUHU216HW,2013-07-22 13:27:00,
2013-07-22 09:32:00,74.0,72.5,29.88,North,0,0.0,0.0,95,0.00,,,0.00,WUHU216HW,2013-07-22 13:32:00,
2013-07-22 09:37:00,74.0,72.5,29.88,North,0,0.0,0.0,95,0.00,,,0.00,WUHU216HW,2013-07-22 13:37:00,
2013-07-22 09:42:00,74.0,72.5,29.88,North,0,0.0,0.0,95,0.00,,,0.00,WUHU216HW,2013-07-22 13:42:00,
2013-07-22 09:47:00,74.0,72.5,29.88,North,0,0.0,0.0,95,0.00,,,0.00,WUHU216HW,2013-07-22 13:47:00,
2013-07-22 09:52:00,74.2,72.6,29.88,North,0,0.0,0.0,95,0.00,,,0.00,WUHU216HW,2013-07-22 13:52:00,
2013-07-22 09:57:00,74.3,72.8,29.88,North,0,0.0,0.0,95,0.00,,,0.00,WUHU216HW,2013-07-22 13:57:00,
2013-07-22 10:02:00,74.5,73.0,29.88,North,0,0.0,0.0,95,0.00,,,0.00,WUHU216HW,2013-07-22 14:02:00,
2013-07-22 10:07:00,74.5,73.0,29.88,North,0,0.0,0.0,95,0.00,,,0.00,WUHU216HW,2013-07-22 14:07:00,
2013-07-22 10:13:00,74.5,73.0,29.88,North,0,0.0,0.0,95,0.00,,,0.00,WUHU216HW,2013-07-22 14:13:00,
2013-07-22 10:18:00,74.5,73.0,29.88,North,0,0.0,0.0,95,0.00,,,0.00,WUHU216HW,2013-07-22 14:18:00,
2013-07-22 10:23:00,74.3,72.8,29.88,North,0,0.0,0.0,95,0.00,,,0.00,WUHU216HW,2013-07-22 14:23:00,
2013-07-22 10:28:00,74.3,72.8,29.88,North,0,0.0,0.0,95,0.00,,,0.00,WUHU216HW,2013-07-22 14:28:00,
2013-07-22 10:33:00,74.5,73.0,29.88,North,0,0.0,0.0,95,0.00,,,0.00,WUHU216HW,2013-07-22 14:33:00,
2013-07-22 10:38:00,74.9,73.4,29.88,North,0,0.0,0.0,95,0.00,,,0.00,WUHU216HW,2013-07-22 14:38:00,
2013-07-22 10:43:00,74.9,73.4,29.88,North,0,0.0,0.0,95,0.00,,,0.00,WUHU216HW,2013-07-22 14:43:00,
2013-07-22 10:48:00,74.9,73.4,29.88,North,0,0.0,0.0,95,0.00,,,0.00,WUHU216HW,2013-07-22 14:48:00,
2013-07-22 10:53:00,74.9,73.4,29.88,North,0,0.0,0.0,95,0.00,,,0.00,WUHU216HW,2013-07-22 14:53:00,
2013-07-22 10:58:00,74.9,73.4,29.89,North,0,0.0,0.0,95,0.00,,,0.00,WUHU216HW,2013-07-22 14:58:00,
2013-07-22 11:03:00,74.9,73.4,29.89,North,0,0.0,0.0,95,0.00,,,0.00,WUHU216HW,2013-07-22 15:03:00,
2013-07-22 11:09:00,75.1,73.5,29.89,North,0,0.0,0.0,95,0.00,,,0.00,WUHU216HW,2013-07-22 15:09:00,
2013-07-22 11:14:00,75.2,73.7,29.89,North,0,0.0,0.0,95,0.00,,,0.00,WUHU216HW,2013-07-22 15:14:00,
2013-07-22 11:19:00,75.6,74.1,29.89,North,0,0.0,0.0,95,0.00,,,0.00,WUHU216HW,2013-07-22 15:19:00,
2013-07-22 11:24:00,75.6,74.1,29.89,North,0,0.0,0.0,95,0.00,,,0.00,WUHU216HW,2013-07-22 15:24:00,
2013-07-22 11:29:00,75.6,74.1,29.89,North,0,0.0,0.0,95,0.00,,,0.00,WUHU216HW,2013-07-22 15:29:00,
2013-07-22 11:34:00,76.0,74.4,29.89,North,0,0.0,0.0,95,0.00,,,0.00,WUHU216HW,2013-07-22 15:34:00,
2013-07-22 11:39:00,76.3,74.8,29.88,North,0,0.0,0.0,95,0.00,,,0.00,WUHU216HW,2013-07-22 15:39:00,
2013-07-22 11:44:00,76.3,74.8,29.88,North,0,0.0,0.0,95,0.00,,,0.00,WUHU216HW,2013-07-22 15:44:00,
2013-07-22 11:50:00,76.3,74.5,29.89,North,0,0.0,0.0,94,0.00,,,0.00,WUHU216HW,2013-07-22 15:50:00,
2013-07-22 11:52:00,76.3,74.5,29.88,North,0,0.0,0.0,94,0.00,,,0.00,WUHU216HW,2013-07-22 15:52:00,
2013-07-22 11:55:00,76.3,74.5,29.88,North,0,0.0,0.0,94,0.00,,,0.00,WUHU216HW,2013-07-22 15:55:00,
2013-07-22 11:58:00,76.3,74.5,29.89,North,0,0.0,0.0,94,0.00,,,0.00,WUHU216HW,2013-07-22 15:58:00,
2013-07-22 12:03:00,76.3,74.5,29.89,North,0,0.0,0.0,94,0.00,,,0.00,WUHU216HW,2013-07-22 16:03:00,
2013-07-22 12:09:00,76.5,74.7,29.88,North,0,0.0,0.0,94,0.00,,,0.00,WUHU216HW,2013-07-22 16:09:00,
2013-07-22 12:14:00,76.7,74.9,29.88,North,0,0.0,0.0,94,0.00,,,0.00,WUHU216HW,2013-07-22 16:14:00,
2013-07-22 12:20:00,76.9,74.7,29.88,North,0,0.0,0.0,93,0.00,,,0.00,WUHU216HW,2013-07-22 16:20:00,
2013-07-22 12:25:00,77.2,75.4,29.87,North,0,0.0,0.0,94,0.00,,,0.00,WUHU216HW,2013-07-22 16:25:00,
2013-07-22 12:31:00,77.8,75.6,29.88,North,0,0.0,0.0,93,0.00,,,0.00,WUHU216HW,2013-07-22 16:31:00,
2013-07-22 12:36:00,77.8,75.6,29.87,North,0,0.0,0.0,93,0.00,,,0.00,WUHU216HW,2013-07-22 16:36:00,
2013-07-22 12:42:00,77.8,75.6,29.87,North,0,0.0,0.0,93,0.00,,,0.00,WUHU216HW,2013-07-22 16:42:00,
2013-07-22 12:47:00,78.1,76.0,29.87,North,0,0.0,0.0,93,0.00,,,0.00,WUHU216HW,2013-07-22 16:47:00,
2013-07-22 12:53:00,78.5,76.1,29.87,North,0,0.0,0.0,92,0.00,,,0.00,WUHU216HW,2013-07-22 16:53:00,
2013-07-22 12:59:00,78.8,76.4,29.87,North,0,0.0,0.0,92,0.00,,,0.00,WUHU216HW,2013-07-22 16:59:00,
2013-07-22 13:04:00,78.8,76.4,29.87,North,0,0.0,0.0,92,0.00,,,0.00,WUHU216HW,2013-07-22 17:04:00,
2013-07-22 13:09:00,78.8,76.1,29.87,North,0,0.0,0.0,91,0.00,,,0.00,WUHU216HW,2013-07-22 17:09:00,
2013-07-22 13:13:00,79.2,76.7,29.86,North,0,0.0,0.0,92,0.00,,,0.00,WUHU216HW,2013-07-22 17:13:00,
2013-07-22 13:19:00,79.6,77.0,29.86,North,0,0.0,0.0,92,0.00,,,0.00,WUHU216HW,2013-07-22 17:19:00,
2013-07-22 13:24:00,80.5,77.6,29.86,North,0,0.0,0.0,91,0.00,,,0.00,WUHU216HW,2013-07-22 17:24:00,
2013-07-22 13:30:00,81.2,77.9,29.85,North,0,0.0,0.0,90,0.00,,,0.00,WUHU216HW,2013-07-22 17:30:00,
2013-07-22 13:35:00,81.5,78.3,29.85,North,0,0.0,0.0,90,0.00,,,0.00,WUHU216HW,2013-07-22 17:35:00,
2013-07-22 13:41:00,81.5,77.3,29.84,North,0,0.0,0.0,87,0.00,,,0.00,WUHU216HW,2013-07-22 17:41:00,
2013-07-22 13:46:00,82.4,78.5,29.84,North,0,0.0,0.0,88,0.00,,,0.00,WUHU216HW,2013-07-22 17:46:00,
2013-07-22 13:52:00,82.6,78.7,29.84,North,0,0.0,0.0,88,0.00,,,0.00,WUHU216HW,2013-07-22 17:52:00,
2013-07-22 13:57:00,83.0,78.4,29.84,North,0,0.0,0.0,86,0.00,,,0.00,WUHU216HW,2013-07-22 17:57:00,
2013-07-22 14:03:00,82.8,78.2,29.84,North,0,0.0,0.0,86,0.00,,,0.00,WUHU216HW,2013-07-22 18:03:00,
2013-07-22 14:08:00,83.2,78.5,29.83,North,0,0.0,0.0,86,0.00,,,0.00,WUHU216HW,2013-07-22 18:08:00,
2013-07-22 14:14:00,83.3,78.7,29.83,North,0,0.0,0.0,86,0.00,,,0.00,WUHU216HW,2013-07-22 18:14:00,
2013-07-22 14:19:00,83.0,78.4,29.83,North,0,0.0,0.0,86,0.00,,,0.00,WUHU216HW,2013-07-22 18:19:00,
2013-07-22 14:25:00,83.0,78.0,29.83,North,0,0.0,0.0,85,0.00,,,0.00,WUHU216HW,2013-07-22 18:25:00,
2013-07-22 14:30:00,83.3,78.0,29.82,North,0,0.0,0.0,84,0.00,,,0.00,WUHU216HW,2013-07-22 18:30:00,
2013-07-22 14:36:00,84.2,78.8,29.82,North,0,0.0,0.0,84,0.00,,,0.00,WUHU216HW,2013-07-22 18:36:00,
2013-07-22 14:41:00,85.3,79.2,29.82,North,0,0.0,0.0,82,0.00,,,0.00,WUHU216HW,2013-07-22 18:41:00,
2013-07-22 14:47:00,86.6,80.8,29.82,North,0,0.0,0.0,83,0.00,,,0.00,WUHU216HW,2013-07-22 18:47:00,
2013-07-22 14:52:00,88.9,81.5,29.82,North,0,0.0,0.0,79,0.00,,,0.00,WUHU216HW,2013-07-22 18:52:00,
2013-07-22 14:57:00,88.2,79.7,29.82,North,0,0.0,0.0,76,0.00,,,0.00,WUHU216HW,2013-07-22 18:57:00,
2013-07-22 15:03:00,87.5,79.8,29.82,North,0,0.0,0.0,78,0.00,,,0.00,WUHU216HW,2013-07-22 19:03:00,
2013-07-22 15:08:00,87.7,80.0,29.82,North,0,0.0,0.0,78,0.00,,,0.00,WUHU216HW,2013-07-22 19:08:00,
2013-07-22 15:18:00,87.3,78.9,29.82,North,0,0.0,0.0,76,0.00,,,0.00,WUHU216HW,2013-07-22 19:18:00,
2013-07-22 15:23:00,87.3,77.6,29.81,North,0,0.0,0.0,73,0.00,,,0.00,WUHU216HW,2013-07-22 19:23:00,
2013-07-22 15:29:00,87.1,79.0,29.81,North,0,0.0,0.0,77,0.00,,,0.00,WUHU216HW,2013-07-22 19:29:00,
2013-07-22 15:34:00,86.6,77.8,29.81,North,0,0.0,0.0,75,0.00,,,0.00,WUHU216HW,2013-07-22 19:34:00,
2013-07-22 15:39:00,85.7,77.2,29.81,North,0,0.0,0.0,76,0.00,,,0.00,WUHU216HW,2013-07-22 19:39:00,
2013-07-22 15:44:00,85.1,76.0,29.81,North,0,0.0,0.0,74,0.00,,,0.00,WUHU216HW,2013-07-22 19:44:00,
2013-07-22 15:49:00,84.2,76.2,29.81,North,0,0.0,0.0,77,0.00,,,0.00,WUHU216HW,2013-07-22 19:49:00,
2013-07-22 15:55:00,84.1,76.1,29.80,North,0,0.0,0.0,77,0.00,,,0.00,WUHU216HW,2013-07-22 19:55:00,
2013-07-22 16:00:00,84.2,77.4,29.80,North,0,0.0,0.0,80,0.00,,,0.00,WUHU216HW,2013-07-22 20:00:00,
2013-07-22 16:05:00,84.1,76.4,29.80,North,0,0.0,0.0,78,0.00,,,0.00,WUHU216HW,2013-07-22 20:05:00,
2013-07-22 16:10:00,84.1,76.9,29.80,North,0,0.0,0.0,79,0.00,,,0.00,WUHU216HW,2013-07-22 20:10:00,
2013-07-22 16:15:00,84.4,76.4,29.80,North,0,0.0,0.0,77,0.00,,,0.00,WUHU216HW,2013-07-22 20:15:00,
2013-07-22 16:16:00,84.4,77.2,29.80,North,0,0.0,0.0,79,0.00,,,0.00,WUHU216HW,2013-07-22 20:16:00,
2013-07-22 16:17:00,84.4,77.2,29.80,North,0,0.0,0.0,79,0.00,,,0.00,WUHU216HW,2013-07-22 20:17:00,
2013-07-22 16:18:00,84.4,77.2,29.80,North,0,0.0,0.0,79,0.00,,,0.00,WUHU216HW,2013-07-22 20:18:00,
2013-07-22 16:23:00,84.2,77.1,29.80,North,0,0.0,0.0,79,0.00,,,0.00,WUHU216HW,2013-07-22 20:23:00,
2013-07-22 16:28:00,84.2,77.1,29.80,North,0,0.0,0.0,79,0.00,,,0.00,WUHU216HW,2013-07-22 20:28:00,
2013-07-22 16:33:00,84.2,77.1,29.79,North,0,0.0,0.0,79,0.00,,,0.00,WUHU216HW,2013-07-22 20:33:00,
2013-07-22 16:38:00,84.1,76.9,29.79,North,0,0.0,0.0,79,0.00,,,0.00,WUHU216HW,2013-07-22 20:38:00,
2013-07-22 16:43:00,83.9,77.0,29.79,North,0,0.0,0.0,80,0.00,,,0.00,WUHU216HW,2013-07-22 20:43:00,
2013-07-22 16:48:00,83.9,77.0,29.79,North,0,0.0,0.0,80,0.00,,,0.00,WUHU216HW,2013-07-22 20:48:00,
2013-07-22 16:53:00,83.9,77.4,29.78,North,0,0.0,0.0,81,0.00,,,0.00,WUHU216HW,2013-07-22 20:53:00,
2013-07-22 16:59:00,83.7,77.3,29.78,North,0,0.0,0.0,81,0.00,,,0.00,WUHU216HW,2013-07-22 20:59:00,
2013-07-22 17:04:00,83.5,77.1,29.78,North,0,0.0,0.0,81,0.00,,,0.00,WUHU216HW,2013-07-22 21:04:00,
2013-07-22 17:09:00,83.5,77.1,29.78,North,0,0.0,0.0,81,0.00,,,0.00,WUHU216HW,2013-07-22 21:09:00,
2013-07-22 17:14:00,83.3,76.6,29.78,North,0,0.0,0.0,80,0.00,,,0.00,WUHU216HW,2013-07-22 21:14:00,
2013-07-22 17:19:00,83.0,76.6,29.78,North,0,0.0,0.0,81,0.00,,,0.00,WUHU216HW,2013-07-22 21:19:00,
2013-07-22 17:24:00,82.8,76.8,29.78,North,0,0.0,0.0,82,0.00,,,0.00,WUHU216HW,2013-07-22 21:24:00,
2013-07-22 17:29:00,82.4,76.5,29.77,North,0,0.0,0.0,82,0.00,,,0.00,WUHU216HW,2013-07-22 21:29:00,
2013-07-22 17:34:00,81.9,76.2,29.77,North,0,0.0,0.0,83,0.00,,,0.00,WUHU216HW,2013-07-22 21:34:00,
2013-07-22 17:39:00,81.7,76.4,29.77,North,0,0.0,0.0,84,0.00,,,0.00,WUHU216HW,2013-07-22 21:39:00,
2013-07-22 17:44:00,81.5,76.2,29.78,North,0,0.0,0.0,84,0.00,,,0.00,WUHU216HW,2013-07-22 21:44:00,
2013-07-22 17:50:00,81.0,75.3,29.78,North,0,0.0,0.0,83,0.00,,,0.00,WUHU216HW,2013-07-22 21:50:00,
2013-07-22 17:55:00,79.4,74.5,29.78,North,0,0.0,0.0,85,0.00,,,0.00,WUHU216HW,2013-07-22 21:55:00,
2013-07-22 18:00:00,78.1,74.0,29.77,North,0,0.0,0.0,87,0.00,,,0.00,WUHU216HW,2013-07-22 22:00:00,
2013-07-22 18:05:00,77.8,74.0,29.77,North,0,0.0,0.0,88,0.00,,,0.00,WUHU216HW,2013-07-22 22:05:00,
2013-07-22 18:10:00,77.8,74.3,29.77,North,0,0.0,0.0,89,0.00,,,0.00,WUHU216HW,2013-07-22 22:10:00,
2013-07-22 18:15:00,77.9,74.9,29.77,North,0,0.0,0.0,90,0.00,,,0.00,WUHU216HW,2013-07-22 22:15:00,
2013-07-22 18:20:00,77.9,74.9,29.77,North,0,0.0,0.0,90,0.00,,,0.00,WUHU216HW,2013-07-22 22:20:00,
2013-07-22 18:26:00,77.8,75.0,29.77,North,0,0.0,0.0,91,0.00,,,0.00,WUHU216HW,2013-07-22 22:26:00,
2013-07-22 18:31:00,77.8,75.0,29.77,North,0,0.0,0.0,91,0.00,,,0.00,WUHU216HW,2013-07-22 22:31:00,
2013-07-22 18:36:00,77.4,74.6,29.77,North,0,0.0,0.0,91,0.00,,,0.00,WUHU216HW,2013-07-22 22:36:00,
2013-07-22 18:41:00,77.4,74.6,29.77,North,0,0.0,0.0,91,0.00,,,0.00,WUHU216HW,2013-07-22 22:41:00,
2013-07-22 18:46:00,77.4,75.0,29.77,North,0,0.0,0.0,92,0.00,,,0.00,WUHU216HW,2013-07-22 22:46:00,
2013-07-22 18:51:00,77.6,75.2,29.77,North,0,0.0,0.0,92,0.00,,,0.00,WUHU216HW,2013-07-22 22:51:00,
2013-07-22 18:56:00,77.8,75.3,29.77,North,0,0.0,0.0,92,0.00,,,0.00,WUHU216HW,2013-07-22 22:56:00,
2013-07-22 19:01:00,77.8,75.3,29.76,North,0,0.0,0.0,92,0.00,,,0.00,WUHU216HW,2013-07-22 23:01:00,
2013-07-22 19:06:00,77.6,75.2,29.76,North,0,0.0,0.0,92,0.00,,,0.00,WUHU216HW,2013-07-22 23:06:00,
2013-07-22 19:11:00,77.4,75.0,29.76,North,0,0.0,0.0,92,0.00,,,0.00,WUHU216HW,2013-07-22 23:11:00,
2013-07-22 19:17:00,77.4,75.0,29.76,North,0,0.0,0.0,92,0.00,,,0.00,WUHU216HW,2013-07-22 23:17:00,
2013-07-22 19:22:00,77.4,75.0,29.76,North,0,0.0,0.0,92,0.00,,,0.00,WUHU216HW,2013-07-22 23:22:00,
2013-07-22 19:27:00,77.2,75.1,29.76,North,0,0.0,0.0,93,0.00,,,0.00,WUHU216HW,2013-07-22 23:27:00,
2013-07-22 19:32:00,77.2,75.1,29.76,North,0,0.0,0.0,93,0.00,,,0.00,WUHU216HW,2013-07-22 23:32:00,
2013-07-22 19:37:00,77.0,74.9,29.76,North,0,0.0,0.0,93,0.00,,,0.00,WUHU216HW,2013-07-22 23:37:00,
2013-07-22 19:42:00,77.0,74.9,29.76,North,0,0.0,0.0,93,0.00,,,0.00,WUHU216HW,2013-07-22 23:42:00,
2013-07-22 19:47:00,76.9,74.7,29.76,North,0,0.0,0.0,93,0.00,,,0.00,WUHU216HW,2013-07-22 23:47:00,
2013-07-22 19:52:00,76.7,74.5,29.76,North,0,0.0,0.0,93,0.00,,,0.00,WUHU216HW,2013-07-22 23:52:00,
2013-07-22 19:57:00,76.7,74.5,29.76,North,0,0.0,0.0,93,0.00,,,0.00,WUHU216HW,2013-07-22 23:57:00,
2013-07-22 20:02:00,76.5,74.3,29.76,North,0,0.0,0.0,93,0.00,,,0.00,WUHU216HW,2013-07-23 00:02:00,
2013-07-22 20:07:00,76.5,74.3,29.76,North,0,0.0,0.0,93,0.00,,,0.00,WUHU216HW,2013-07-23 00:07:00,
2013-07-22 20:13:00,76.3,74.2,29.76,North,0,0.0,0.0,93,0.00,,,0.00,WUHU216HW,2013-07-23 00:13:00,
2013-07-22 20:18:00,76.3,74.5,29.76,North,0,0.0,0.0,94,0.00,,,0.00,WUHU216HW,2013-07-23 00:18:00,
2013-07-22 20:23:00,76.3,74.5,29.76,North,0,0.0,0.0,94,0.00,,,0.00,WUHU216HW,2013-07-23 00:23:00,
2013-07-22 20:28:00,76.1,74.4,29.76,North,0,0.0,0.0,94,0.00,,,0.00,WUHU216HW,2013-07-23 00:28:00,
2013-07-22 20:33:00,76.1,74.4,29.76,North,0,0.0,0.0,94,0.00,,,0.00,WUHU216HW,2013-07-23 00:33:00,
2013-07-22 20:38:00,76.0,74.2,29.76,North,0,0.0,0.0,94,0.00,,,0.00,WUHU216HW,2013-07-23 00:38:00,
2013-07-22 20:43:00,76.0,74.2,29.76,North,0,0.0,0.0,94,0.00,,,0.00,WUHU216HW,2013-07-23 00:43:00,
2013-07-22 20:48:00,76.0,74.2,29.76,North,0,0.0,0.0,94,0.00,,,0.00,WUHU216HW,2013-07-23 00:48:00,
2013-07-22 20:53:00,75.8,74.0,29.76,North,0,0.0,0.0,94,0.00,,,0.00,WUHU216HW,2013-07-23 00:53:00,
2013-07-22 20:59:00,75.6,73.8,29.76,North,0,0.0,0.0,94,0.00,,,0.00,WUHU216HW,2013-07-23 00:59:00,
2013-07-22 21:04:00,75.6,73.8,29.76,North,0,0.0,0.0,94,0.00,,,0.00,WUHU216HW,2013-07-23 01:04:00,
2013-07-22 21:09:00,75.4,73.6,29.76,North,0,0.0,0.0,94,0.00,,,0.00,WUHU216HW,2013-07-23 01:09:00,
2013-07-22 21:14:00,75.2,73.5,29.76,North,0,0.0,0.0,94,0.00,,,0.00,WUHU216HW,2013-07-23 01:14:00,
2013-07-22 21:19:00,75.2,73.5,29.76,North,0,0.0,0.0,94,0.00,,,0.00,WUHU216HW,2013-07-23 01:19:00,
2013-07-22 21:24:00,75.2,73.5,29.77,North,0,0.0,0.0,94,0.00,,,0.00,WUHU216HW,2013-07-23 01:24:00,
2013-07-22 21:29:00,75.2,73.5,29.76,North,0,0.0,0.0,94,0.00,,,0.00,WUHU216HW,2013-07-23 01:29:00,
2013-07-22 21:34:00,75.1,73.3,29.77,North,0,0.0,0.0,94,0.00,,,0.00,WUHU216HW,2013-07-23 01:34:00,
2013-07-22 21:39:00,75.1,73.3,29.77,North,0,0.0,0.0,94,0.00,,,0.00,WUHU216HW,2013-07-23 01:39:00,
2013-07-22 21:45:00,74.9,73.1,29.77,North,0,0.0,0.0,94,0.00,,,0.00,WUHU216HW,2013-07-23 01:45:00,
2013-07-22 21:50:00,74.9,73.1,29.77,North,0,0.0,0.0,94,0.00,,,0.00,WUHU216HW,2013-07-23 01:50:00,
2013-07-22 21:55:00,74.7,72.9,29.77,North,0,0.0,0.0,94,0.00,,,0.00,WUHU216HW,2013-07-23 01:55:00,
2013-07-22 22:00:00,74.7,72.9,29.77,North,0,0.0,0.0,94,0.00,,,0.00,WUHU216HW,2013-07-23 02:00:00,
2013-07-22 22:05:00,74.5,72.7,29.78,North,0,0.0,0.0,94,0.00,,,0.00,WUHU216HW,2013-07-23 02:05:00,
2013-07-22 22:10:00,74.5,72.7,29.78,North,0,0.0,0.0,94,0.00,,,0.00,WUHU216HW,2013-07-23 02:10:00,
2013-07-22 22:15:00,74.5,72.7,29.78,North,0,0.0,0.0,94,0.00,,,0.00,WUHU216HW,2013-07-23 02:15:00,
2013-07-22 22:21:00,74.3,72.6,29.78,North,0,0.0,0.0,94,0.00,,,0.00,WUHU216HW,2013-07-23 02:21:00,
2013-07-22 22:26:00,74.3,72.8,29.78,North,0,0.0,0.0,95,0.00,,,0.00,WUHU216HW,2013-07-23 02:26:00,
2013-07-22 22:31:00,74.3,72.8,29.78,North,0,0.0,0.0,95,0.00,,,0.00,WUHU216HW,2013-07-23 02:31:00,
2013-07-22 22:36:00,74.3,72.8,29.78,North,0,0.0,0.0,95,0.00,,,0.00,WUHU216HW,2013-07-23 02:36:00,
2013-07-22 22:41:00,74.2,72.6,29.78,North,0,0.0,0.0,95,0.00,,,0.00,WUHU216HW,2013-07-23 02:41:00,
2013-07-22 22:46:00,74.2,72.6,29.78,North,0,0.0,0.0,95,0.00,,,0.00,WUHU216HW,2013-07-23 02:46:00,
2013-07-22 22:51:00,74.2,72.6,29.78,North,0,0.0,0.0,95,0.00,,,0.00,WUHU216HW,2013-07-23 02:51:00,
2013-07-22 22:56:00,74.0,72.5,29.78,North,0,0.0,0.0,95,0.00,,,0.00,WUHU216HW,2013-07-23 02:56:00,
2013-07-22 23:02:00,74.0,72.5,29.78,North,0,0.0,0.0,95,0.00,,,0.00,WUHU216HW,2013-07-23 03:02:00,
2013-07-22 23:07:00,74.0,72.5,29.78,North,0,0.0,0.0,95,0.00,,,0.00,WUHU216HW,2013-07-23 03:07:00,
2013-07-22 23:12:00,74.0,72.5,29.78,North,0,0.0,0.0,95,0.00,,,0.00,WUHU216HW,2013-07-23 03:12:00,
2013-07-22 23:17:00,74.0,72.5,29.78,North,0,0.0,0.0,95,0.00,,,0.00,WUHU216HW,2013-07-23 03:17:00,
2013-07-22 23:22:00,73.8,72.3,29.78,North,0,0.0,0.0,95,0.00,,,0.00,WUHU216HW,2013-07-23 03:22:00,
2013-07-22 23:27:00,73.8,72.3,29.78,North,0,0.0,0.0,95,0.00,,,0.00,WUHU216HW,2013-07-23 03:27:00,
2013-07-22 23:32:00,73.8,72.3,29.78,North,0,0.0,0.0,95,0.00,,,0.00,WUHU216HW,2013-07-23 03:32:00,
2013-07-22 23:37:00,73.8,72.3,29.78,North,0,0.0,0.0,95,0.00,,,0.00,WUHU216HW,2013-07-23 03:37:00,
2013-07-22 23:43:00,73.8,72.3,29.78,North,0,0.0,0.0,95,0.00,,,0.00,WUHU216HW,2013-07-23 03:43:00,
2013-07-22 23:48:00,73.8,72.3,29.78,North,0,0.0,0.0,95,0.00,,,0.00,WUHU216HW,2013-07-23 03:48:00,
2013-07-22 23:53:00,73.8,72.3,29.78,North,0,0.0,0.0,95,0.00,,,0.00,WUHU216HW,2013-07-23 03:53:00,
2013-07-22 23:58:00,73.8,72.3,29.78,North,0,0.0,0.0,95,0.00,,,0.00,WUHU216HW,2013-07-23 03:58:00,